Port Alexander, AK NWLON current weather conditions

sailwx.info

Wind from 352 at 1 knots gusting 3

Air temperature 5.0° C
Water temperature 6.7° C

Last reported at 2020-Oct-26 09:42 UTC.
Time now 2020-Oct-26 10:20 UTC

Location: N 56°15' W 134°39'.
View on Google Maps.

See reports from other nearby stations

  
Tides and Currents Weather Stations Pressure Air Temp Water Temp Dewpoint Dewpoint Depression Visibility Wind Speed Wind Dir Waves Ship Positions
date/time (UTC)wind fromknots sea level pressurealtimeterstation pressurevisibilityair tempwater tempwave heightnotes
2020-Oct-26 09:42 352 1 gusting 3 5.0 6.7
2020-Oct-26 09:36 336 2 gusting 3 5.0 6.7
2020-Oct-26 09:30 340 1 gusting 2 5.0 6.7
2020-Oct-26 09:24 350 1 gusting 1 5.0 6.7
2020-Oct-26 09:18 001 0 gusting 1 5.0 7.2
2020-Oct-26 09:12 276 5.0 7.2
2020-Oct-26 09:06 276 0 gusting 1 5.0 7.2
2020-Oct-26 09:00 028 5.0 7.2
2020-Oct-26 08:42 294 4.4 7.2
2020-Oct-26 08:36 013 0 gusting 1 4.4 7.2
2020-Oct-26 08:30 360 4.4 7.2
2020-Oct-26 08:24 326 4.4 7.2
2020-Oct-26 08:18 282 4.4 7.2
2020-Oct-26 08:12 034 0 gusting 1 4.4 7.2
2020-Oct-26 08:06 332 0 gusting 1 4.4 7.2
2020-Oct-26 08:00 298 4.4 7.2
2020-Oct-26 07:54 217 4.4 7.2
2020-Oct-26 07:48 272 0 gusting 1 4.4 7.2
2020-Oct-26 07:42 185 4.4 7.2
2020-Oct-26 07:36 321 4.4 7.2
2020-Oct-26 07:30 276 4.4 7.2
2020-Oct-26 07:24 155 4.4 7.2
2020-Oct-26 07:18 312 1 gusting 3 4.4 7.2
2020-Oct-26 07:12 020 0 gusting 2 4.4 7.2
2020-Oct-26 07:06 285 1 gusting 2 4.4 7.2
2020-Oct-26 07:00 353 0 gusting 1 4.4 7.2
2020-Oct-26 06:54 321 3 gusting 4 4.4 7.2
2020-Oct-26 06:48 294 1 gusting 3 4.4 7.2
2020-Oct-26 06:42 322 2 gusting 5 4.4 7.2
2020-Oct-26 06:36 320 3 gusting 6 4.4 7.2
2020-Oct-26 06:30 323 2 gusting 5 4.4 7.2
2020-Oct-26 06:24 336 3 gusting 6 4.4 7.2
2020-Oct-26 06:18 342 3 gusting 5 4.4 7.2
2020-Oct-26 06:12 027 2 gusting 6 4.4 7.2
2020-Oct-26 06:06 347 3 gusting 6 4.4 7.2
2020-Oct-26 06:00 351 4 gusting 6 4.4 7.2
2020-Oct-26 05:54 351 3 gusting 8 4.4 7.2
2020-Oct-26 05:48 347 5 gusting 6 4.4 7.2
2020-Oct-26 05:42 356 3 gusting 6 4.4 7.2
2020-Oct-26 05:36 350 4 gusting 6 4.4 7.2
2020-Oct-26 05:30 344 3 gusting 6 4.4 7.2
2020-Oct-26 05:24 347 4 gusting 6 4.4 7.2
2020-Oct-26 05:18 349 3 gusting 5 4.4 7.2
2020-Oct-26 05:12 345 5 gusting 6 4.4 7.2
2020-Oct-26 05:06 348 4 gusting 6 4.4 7.2
2020-Oct-26 05:00 340 4 gusting 6 4.4 7.2
2020-Oct-26 04:54 358 4 gusting 6 4.4 7.2
2020-Oct-26 04:48 341 5 gusting 7 4.4 7.2
2020-Oct-26 04:42 344 6 gusting 7 4.4 7.2
2020-Oct-26 04:36 341 6 gusting 7 4.4 7.2
2020-Oct-26 04:30 347 5 gusting 7 4.4 7.2
2020-Oct-26 04:24 345 5 gusting 6 4.4 7.2
2020-Oct-26 04:18 346 3 gusting 6 4.4 7.2
2020-Oct-26 04:12 013 2 gusting 6 4.4 7.2
2020-Oct-26 04:06 348 3 gusting 5 4.4 7.2
2020-Oct-26 04:00 028 0 gusting 2 4.4 7.2
2020-Oct-26 03:54 009 1 gusting 6 4.4 7.2
2020-Oct-25 15:00
2020-Oct-25 14:12 029 4.4
2020-Oct-25 14:06 002 1 4.4
2020-Oct-25 14:00 336 0 4.4
2020-Oct-25 13:30 117 0 4.4
2020-Oct-25 13:24 236 0 4.4
2020-Oct-25 13:18 298 4.4
2020-Oct-25 13:12
2020-Oct-25 13:06
2020-Oct-25 13:00
2020-Oct-25 12:54
2020-Oct-25 12:48
2020-Oct-25 12:42
2020-Oct-25 12:36
2020-Oct-25 12:30
2020-Oct-25 12:24
2020-Oct-25 12:18
2020-Oct-25 12:12
2020-Oct-25 12:06
2020-Oct-25 12:00
2020-Oct-25 11:42
2020-Oct-25 11:36
2020-Oct-25 11:30
2020-Oct-25 11:24
2020-Oct-25 11:18
2020-Oct-25 11:12
2020-Oct-25 11:06
2020-Oct-25 11:00
2020-Oct-25 10:54
2020-Oct-25 10:48
2020-Oct-25 10:42
2020-Oct-25 10:36
2020-Oct-25 10:30
2020-Oct-25 10:24
2020-Oct-25 10:18
2020-Oct-25 10:12
2020-Oct-25 10:06
2020-Oct-25 10:00 4.4
2020-Oct-25 09:54 4.4
2020-Oct-25 09:48 3.9
2020-Oct-25 09:42 4.4
2020-Oct-25 09:36 4.4
2020-Oct-25 09:30 4.4
2020-Oct-25 09:24 4.4
2020-Oct-25 09:18 4.4
2020-Oct-25 09:12 4.4
2020-Oct-25 09:06 4.4
2020-Oct-25 09:00 4.4
2020-Oct-25 08:54 4.4
2020-Oct-25 08:48 4.4
2020-Oct-25 08:42 4.4
2020-Oct-25 08:36 4.4
2020-Oct-25 08:30 4.4
2020-Oct-25 08:24 4.4
2020-Oct-25 08:18 4.4
2020-Oct-25 08:12 350 4 4.4
2020-Oct-25 08:06 346 3 4.4
2020-Oct-25 08:00 346 3 4.4
2020-Oct-25 07:54 352 3 4.4
2020-Oct-25 07:48 353 3 4.4
2020-Oct-25 07:42 345 4 4.4
2020-Oct-25 07:36 338 5 4.4
2020-Oct-25 07:30 353 4 4.4
2020-Oct-25 07:24 358 3 4.4
2020-Oct-25 07:18 360 4 4.4
2020-Oct-25 07:12 352 4 4.4
2020-Oct-25 07:06 002 3 4.4
2020-Oct-25 07:00 001 4 4.4
2020-Oct-25 06:54 359 4 4.4
2020-Oct-25 06:48 353 4 4.4
2020-Oct-25 06:42 347 2 4.4
2020-Oct-25 06:36 326 2 4.4
2020-Oct-25 06:30 335 2 4.4
2020-Oct-25 06:24 326 3 4.4
2020-Oct-25 06:18 325 3 4.4
2020-Oct-25 06:12 331 3 4.4
2020-Oct-25 06:06 359 3 4.4
2020-Oct-25 06:00 360 3 4.4
2020-Oct-25 05:54 337 4 4.4
2020-Oct-25 05:48 337 4 4.4
2020-Oct-25 05:42 341 4 4.4
2020-Oct-25 05:36 348 3 4.4
2020-Oct-25 05:30 004 2 4.4
2020-Oct-25 05:24 003 4 4.4
2020-Oct-25 05:18 359 3 4.4
2020-Oct-25 05:12 359 3 gusting 6 4.4 6.7
2020-Oct-25 05:06 349 3 gusting 5 4.4 6.7
2020-Oct-25 05:00 352 4 gusting 6 4.4 6.7
2020-Oct-25 04:54 353 2 gusting 6 3.9 6.7
2020-Oct-25 04:48 357 2 gusting 4 3.9 6.7
2020-Oct-25 04:42 008 0 gusting 2 3.9 6.7
2020-Oct-25 04:36 329 1 gusting 3 3.9 6.7
2020-Oct-25 04:30 334 1 gusting 2 3.9 6.7
2020-Oct-25 04:24 327 4 gusting 5 4.4 7.2
2020-Oct-25 04:18 332 3 gusting 4 4.4 7.2
2020-Oct-25 04:12 354 3 gusting 6 4.4 7.2
2020-Oct-25 04:06 336 3 gusting 6 4.4 7.2
2020-Oct-25 04:00 346 3 gusting 6 4.4 7.2
2020-Oct-25 03:54 345 5 gusting 6 4.4 7.2
2020-Oct-25 03:48 349 4 gusting 7 4.4 7.2
2020-Oct-25 03:42 348 6 gusting 8 4.4 7.2
2020-Oct-25 03:36 352 5 gusting 8 4.4 7.2
2020-Oct-25 03:30 344 6 gusting 9 4.4 7.2
2020-Oct-25 03:24 346 6 gusting 9 4.4 7.2
2020-Oct-25 03:18 344 6 gusting 8 3.9 7.2
2020-Oct-25 03:12 356 3 gusting 5 3.9 7.2
2020-Oct-25 03:06 353 4 gusting 6 3.9 7.2
2020-Oct-25 03:00 354 3 gusting 10 3.9 6.7
2020-Oct-25 02:54 350 5 gusting 7 3.9 6.7
2020-Oct-25 02:48 342 4 gusting 7 3.9 6.7
2020-Oct-25 02:42 350 4 gusting 6 3.9 6.7
2020-Oct-25 02:36 001 3 gusting 7 3.9 6.7
2020-Oct-25 02:30 350 4 gusting 7 3.9 6.7
2020-Oct-25 02:24 358 4 gusting 7 3.9 6.7
2020-Oct-25 02:18 340 4 gusting 7 3.9 6.7
2020-Oct-25 02:12 349 4 gusting 6 3.9 6.7
2020-Oct-25 02:06 349 5 gusting 8 3.9 6.7
2020-Oct-25 02:00 356 5 gusting 8 3.9 6.7
2020-Oct-25 01:54 358 5 gusting 6 3.9 6.7
2020-Oct-25 01:48 354 5 gusting 6 3.9 6.7
2020-Oct-25 01:42 350 4 gusting 6 4.4 6.7
2020-Oct-25 01:36 349 5 gusting 7 4.4 6.7
2020-Oct-25 01:30 355 5 gusting 9 4.4 6.7
2020-Oct-25 01:24 357 3 gusting 8 4.4 6.7
2020-Oct-25 01:18 354 5 gusting 9 4.4 6.7
2020-Oct-25 01:12 345 4 gusting 6 4.4 6.7
2020-Oct-25 01:06 010 3 gusting 5 4.4 6.7
2020-Oct-25 01:00 359 5 gusting 10 4.4 6.7
2020-Oct-25 00:54 006 3 gusting 7 4.4 6.7
2020-Oct-25 00:48 356 5 gusting 8 4.4 6.7
2020-Oct-25 00:42 340 4 gusting 6 4.4 6.7
2020-Oct-25 00:36 021 1 gusting 5 4.4 6.7
2020-Oct-25 00:30 010 4 gusting 8 4.4 6.7
2020-Oct-25 00:24 008 4 gusting 9 4.4 6.7
2020-Oct-25 00:18 358 5 gusting 11 4.4 6.7
2020-Oct-25 00:12 012 4 gusting 7 4.4 6.7
2020-Oct-25 00:06 348 4 gusting 8 4.4 6.7
2020-Oct-25 00:00 001 4 gusting 9 4.4 6.7
2020-Oct-24 23:42 349 6 gusting 12 4.4 6.7
2020-Oct-24 23:36 354 8 gusting 12 4.4 6.7
2020-Oct-24 23:30 345 10 gusting 13 4.4 6.7
2020-Oct-24 23:24 349 6 gusting 9 4.4 6.7
2020-Oct-24 23:18 344 7 gusting 10 4.4 6.7
2020-Oct-24 23:12 349 7 gusting 13 4.4 6.7
2020-Oct-24 23:06 350 8 gusting 12 4.4 6.7
2020-Oct-24 23:00 357 6 gusting 10 4.4 6.7
2020-Oct-24 22:54 352 6 gusting 11 4.4 6.7
2020-Oct-24 22:48 004 5 gusting 10 4.4 6.7
2020-Oct-24 22:42 022 4 gusting 9 4.4 6.7
2020-Oct-24 22:36 014 4 gusting 10 5.0 6.7
2020-Oct-24 22:30 004 5 gusting 9 5.0 6.7
2020-Oct-24 22:24 348 6 gusting 12 5.0 6.7
2020-Oct-24 22:18 350 6 gusting 12 5.0 6.7
2020-Oct-24 22:12 355 6 gusting 11 5.6 6.7
2020-Oct-24 22:06 015 2 gusting 9 5.6 6.7
2020-Oct-24 22:00 360 6 gusting 10 5.6 6.7
2020-Oct-24 21:54 349 6 gusting 10 5.6 6.7
2020-Oct-24 21:48 348 6 gusting 11 5.6 6.7
2020-Oct-24 21:42 001 4 gusting 12 5.6 6.7
2020-Oct-24 21:36 342 8 gusting 12 5.0 6.7
2020-Oct-24 21:30 339 9 gusting 13 4.4 6.7
2020-Oct-24 21:24 349 8 gusting 13 5.0 6.7
2020-Oct-24 21:18 342 10 gusting 13 5.0 6.7
2020-Oct-24 21:12 342 10 gusting 13 5.0 6.7
2020-Oct-24 21:06 344 7 gusting 11 5.0 6.7
2020-Oct-24 21:00 343 8 gusting 13 5.0 6.7
2020-Oct-24 20:54 341 9 gusting 13 5.0 6.7
2020-Oct-24 20:48 341 11 gusting 13 4.4 6.7
2020-Oct-24 20:42 345 8 gusting 11 5.0 6.7
2020-Oct-24 20:36 346 8 gusting 13 5.0 6.7
2020-Oct-24 20:30 342 7 gusting 11 5.0 6.7
2020-Oct-24 20:24 354 4 gusting 7 5.6 6.7
2020-Oct-24 20:18 006 3 gusting 8 5.6 6.7
2020-Oct-24 20:12 347 8 gusting 12 5.0 6.7
2020-Oct-24 20:06 001 4 gusting 11 5.0 6.7
2020-Oct-24 20:00 344 6 gusting 13 5.0 6.7
2020-Oct-24 19:54 351 7 gusting 13 4.4 6.7
2020-Oct-24 19:48 354 6 gusting 12 4.4 6.7
2020-Oct-24 19:42 347 6 gusting 15 4.4 6.7
2020-Oct-24 19:36 346 7 gusting 12 4.4 6.7
2020-Oct-24 19:30 357 6 gusting 11 5.0 6.7
2020-Oct-24 19:24 346 9 gusting 13 4.4 6.7
2020-Oct-24 19:18 346 9 gusting 13 4.4 6.7
2020-Oct-24 19:12 350 7 gusting 14 4.4 6.7
2020-Oct-24 19:06 346 9 gusting 16 4.4 6.7
2020-Oct-24 19:00 354 9 gusting 14 4.4 6.7
2020-Oct-24 18:54 003 8 gusting 16 4.4 6.7
2020-Oct-24 18:48 344 8 gusting 14 3.9 6.7
2020-Oct-24 18:42 004 6 gusting 17 3.9 6.7
2020-Oct-24 18:36 348 10 gusting 14 3.9 6.7
2020-Oct-24 18:30 350 13 gusting 16 3.9 6.7
2020-Oct-24 18:24 344 10 gusting 14 3.9 6.7
2020-Oct-24 18:18 343 9 gusting 14 3.9 6.7
2020-Oct-24 18:12 352 10 gusting 15 3.9 6.7
2020-Oct-24 18:06 349 8 gusting 13 3.9 6.7
2020-Oct-24 18:00 345 9 gusting 13 3.9 6.7
2020-Oct-24 17:54 356 6 gusting 13 3.3 6.7
2020-Oct-24 17:48 002 7 gusting 13 3.3 6.7
2020-Oct-24 17:42 350 9 gusting 13 3.3 6.7
2020-Oct-24 17:36 343 9 gusting 13 3.3 6.7
2020-Oct-24 17:30 354 7 gusting 14 3.3 6.7
2020-Oct-24 17:24 349 8 gusting 12 3.3 6.7
2020-Oct-24 17:18 348 8 gusting 13 3.3 6.7
2020-Oct-24 17:12 354 6 gusting 12 3.3 6.7
2020-Oct-24 17:06 346 8 gusting 12 3.3 6.7
2020-Oct-24 17:00 350 8 gusting 11 3.3 6.7
2020-Oct-24 16:54 348 7 gusting 12 3.3 6.7
2020-Oct-24 16:48 344 8 gusting 12 3.3 6.7
2020-Oct-24 16:42 347 8 gusting 12 3.3 7.2
2020-Oct-24 16:36 348 6 gusting 12 3.3 7.2
2020-Oct-24 16:30 347 7 gusting 11 3.3 7.2
2020-Oct-24 16:24 350 7 gusting 15 3.3 6.7
2020-Oct-24 16:18 347 9 gusting 13 3.3 7.2
2020-Oct-24 16:12 344 9 gusting 13 3.3 6.7
2020-Oct-24 16:06 350 9 gusting 13 3.3 6.7
2020-Oct-24 16:00 355 8 gusting 13 3.3 6.7
2020-Oct-24 15:54 350 9 gusting 13 3.3 6.7
2020-Oct-24 15:48 348 9 gusting 13 3.3 6.7
2020-Oct-24 15:42 347 9 gusting 13 3.3 6.7
2020-Oct-24 15:36 353 8 gusting 15 3.3 6.7
2020-Oct-24 15:30 356 6 gusting 13 3.3 6.7
2020-Oct-24 15:24 355 9 gusting 13 3.3 6.7
2020-Oct-24 15:18 350 9 gusting 13 3.3 6.7
2020-Oct-24 15:12 352 10 gusting 14 3.3 6.7
2020-Oct-24 15:06 346 7 gusting 13 3.3 6.7
2020-Oct-24 15:00 347 8 gusting 13 3.3 6.7
2020-Oct-24 14:54 350 9 gusting 14 3.3 6.7
2020-Oct-24 14:48 345 7 gusting 11 3.3 6.7
2020-Oct-24 14:42 348 9 gusting 13 3.3 6.7
2020-Oct-24 14:36 350 8 gusting 13 3.3 6.7
2020-Oct-24 14:30 347 10 gusting 14 3.3 6.7
2020-Oct-24 14:24 351 8 gusting 12 3.3 6.7
2020-Oct-24 14:18 352 7 gusting 13 3.3 6.7
2020-Oct-24 14:12 344 10 gusting 13 3.3 6.7
2020-Oct-24 14:06 346 10 gusting 13 3.3 6.7
2020-Oct-24 14:00 349 6 gusting 12 3.3 6.7
2020-Oct-24 13:54 342 9 gusting 13 3.3 6.7
2020-Oct-24 13:48 349 7 gusting 13 3.3 6.7
2020-Oct-24 13:42 353 6 gusting 13 3.3 6.7
2020-Oct-24 13:36 346 9 gusting 13 3.3 6.7
2020-Oct-24 13:30 351 10 gusting 13 3.3 6.7
2020-Oct-24 13:24 349 9 gusting 13 3.3 6.7
2020-Oct-24 13:18 353 7 gusting 13 3.3 6.7
2020-Oct-24 13:12 347 7 gusting 13 3.3 6.7
2020-Oct-24 13:06 352 8 gusting 14 3.3 6.7
2020-Oct-24 13:00 349 9 gusting 13 3.3 6.7
2020-Oct-24 12:54 349 11 gusting 14 3.3 6.7
2020-Oct-24 12:48 345 9 gusting 13 3.3 6.7
2020-Oct-24 12:42 351 8 gusting 13 3.3 6.7
2020-Oct-24 12:36 350 7 gusting 13 3.9 6.1
2020-Oct-24 12:30 353 7 gusting 14 3.9 6.7
2020-Oct-24 12:24 348 10 gusting 15 3.9 6.7
2020-Oct-24 12:18 343 10 gusting 15 3.9 6.1
2020-Oct-24 12:12 349 8 gusting 13 3.9 6.1
2020-Oct-24 12:06 008 4 gusting 11 3.3 6.1
2020-Oct-24 12:00 355 6 gusting 12 3.9 6.1
2020-Oct-24 11:54 352 8 gusting 13 3.9 6.1
2020-Oct-24 11:48 350 7 gusting 11 3.3 6.1
2020-Oct-24 11:42 351 7 gusting 13 3.9 6.1
2020-Oct-24 11:36 352 6 gusting 13 3.9 6.1
2020-Oct-24 11:30 353 7 gusting 14 3.9 6.1
2020-Oct-24 11:24 006 5 gusting 14 3.9 6.1
2020-Oct-24 11:18 348 8 gusting 14 3.9 6.1
2020-Oct-24 11:12 354 6 gusting 10 3.9 6.1
2020-Oct-24 11:06 360 6 gusting 9 3.9 6.1
2020-Oct-24 11:00 007 5 gusting 11 3.9 6.1
2020-Oct-24 10:54 013 5 gusting 8 3.3 6.1
2020-Oct-24 10:48 004 6 gusting 11 3.9 6.1
2020-Oct-24 10:42 019 3 gusting 7 3.9 6.1
2020-Oct-24 10:36 002 6 gusting 13 3.9 6.1
2020-Oct-24 10:30 010 6 gusting 10 3.9 6.1
2020-Oct-24 10:24 357 5 gusting 10 3.9 6.1
2020-Oct-24 10:18 355 6 gusting 11 3.9 6.1
2020-Oct-24 10:12 014 4 gusting 8 3.9 6.1
2020-Oct-24 10:06 350 3 gusting 9 3.9 6.7
2020-Oct-24 10:00 349 6 gusting 9 3.9 6.7